CZ-6A DEB

Satellite information

Favourite Embed

Satellite Type and Status

DEBRISIN ORBIT

Key statistics

Satellite CZ-6A DEB at a glance.

Uptime

970

Days in orbit

Revolutions

≈ 14.7

Per day

Orbit

SSO

Sun Synchronous Orbit

Inclination

98.7

Latest

Satellite identification and parameters

Extended collection of information and parameters for CZ-6A DEB.

Object identification

Identified? True

Debris? True

Object name: CZ-6A DEB

International designator: 2022-151UN

Object number (NORAD): 54997

Object ID (CCSDS): 54997

Country: PEOPLES REPUBLIC OF CHINA (PRC)

Current information (Y/N): Y

RCS size: SMALL

Orbital parameters

Period: 98.128 minutes

Inclination: 98.654 deg

SMA: 7047.289 km

Apoapsis: 732.334 km

Periapsis: 605.974 km

RAAN: 243.2364 deg

Eccentricy: 0.0089651

Argument of periapsis: 230.9602 deg

Mean anomaly: 128.3597 deg

Mean motion: 14.67471337 rev/day

Mean motion (dot): 0.00006483 rev/day2

B* drag term: 0.0010868 1/REarth

Two-line elements (TLE)

Creation date: July 8, 2025, 2:27 a.m.

Reference frame: TEME

Reference center: EARTH

Epoch: July 7, 2025, 9:16 p.m. UTC

TLE line 0: 0 CZ-6A DEB

TLE line 1: 1 54997U 22151UN 25188.88669317 .00006483 00000-0 10868-2 0 9993

TLE line 2: 2 54997 98.6540 243.2364 0089651 230.9602 128.3597 14.67471337139284

Live tracking on map

Real-time ground track for satellite CZ-6A DEB.

In-orbit conjunctions

A list of the most updated potential collisions computed for object CZ-6A DEB.

Target Orbit TCA Probability of collision Miss distance Type
FENGYUN 1C DEB SSO 2025-06-25 15:52:16 0.0001753909 326.0 (m) DEBRIS
SL-14 R/B LEO 2024-07-25 00:36:47 0.0001699044 118.0 (m) ROCKET BODY

Associated space launch

Chinese satellite reported for atmospheric/ocean/environmental/spatial parameter research purposes, details TBD.

CZ-6A DEB was lifted into orbit during the mission ‘Long March 6A | Yunhai 3’, on board a Long March 6A space rocket.

The launch took place on Nov. 11, 2022, 10:52 p.m. from Launch Complex 9A.

For more information about the launch, click the button.

Launch to space Long March 6A | Yunhai 3
Long March 6A | Yunhai 3

Agency: N/A

Status: Launch Successful

Launch date: Nov. 11, 2022, 10:52 p.m. UTC

Rocket: Long March 6A

Launch pad: Launch Complex 9A

Location: Taiyuan Satellite Launch Center, People's Republic of China

...

Latest news about this satellite

There are no fresh news available about this satellite. Check back as we update our databases every day.


Newsletter sign-up

Weekly statistics, charts and insights to help you stay on top of the space industry.